Location: Caucaguita
(10.3578°N, 66.8025°W)
Time: 01:46:40
(UTC+00:00)

Cosmos 1455 Rocket - Pass Details

Date: 18 November 2025
Orbit: 599 x 621 km, 82.5° (Epoch: 09 December)

Event Time Altitude Azimuth Distance (km) Brightness Sun altitude
Rises 22:20:47 0° 161° (SSE) 2,846 6.5 -5.4°
Reaches altitude 10° 22:23:19 10° 147° (SSE) 1,940 5.5 -5.9°
Maximum altitude 22:26:49 25° 92° (E) 1,232 4.1 -6.8°
Drops below altitude 10° 22:30:18 10° 37° (NE) 1,932 5.1 -7.6°
Sets 22:32:48 0° 24° (NNE) 2,833 6.0 -8.2°
